WGS F4 (USA 233)

Last updated on Sun Dec 07 2025 00:02:47 GMT+0000 (Coordinated Universal Time)

1 38070U 12003A 25340.44426316 -.00000208 00000+0 00000+0 0 9997 2 38070 0.0175 30.1921 0000754 228.2111 65.4227 1.00271155 42219
UTC large
Height (km)
Speed (km/s)
/
Latitude / Longitude
Inclination (degrees)
Orbital Period (minutes)
Azimuth
Elevation
Range (km)
Doppler Factor

Next 0 passes for location: London (51.5072 / 0.1276)

Sorry there are no passes over London.